This demonstration page uses our WeatherBlox Daily Observations layout. Learn more.

Left ArrowRight Arrow

39.29038, -76.61219

Hourly Observations for November 1, 2020

Temp ( °F °C ) Dew Point ( °F °C ) Humidity (%) Winds ( mph kmh ) Pressure ( in mb ) Visibility ( mi km ) Precip ( " mm )
12:54 am 00:54 Cloudy 46 7.8 38 3.3 73 73 E 3 6 30.33 1027 10 16 0.00 0.00
1:54 am 01:54 Cloudy 47 8.3 38 3.3 71 71 Calm 30.31 1027 10 16 0.00 0.00
1:54 am 01:54 Cloudy 46 7.8 41 5 83 83 Calm 30.28 1026 10 16 0.00 0.00
2:54 am 02:54 Cloudy 47 8.3 41 5 80 80 Calm 30.26 1025 10 16 0.00 0.00
3:54 am 03:54 Cloudy 46 7.8 42 5.6 86 86 Calm 30.23 1024 10 16 0.00 0.00
4:54 am 04:54 Cloudy 48 8.9 43 6.1 83 83 SW 3 6 30.20 1023 10 16 0.00 0.00
5:54 am 05:54 Cloudy 48 8.9 43 6.1 83 83 Calm 30.17 1022 10 16 0.00 0.00
6:54 am 06:54 Cloudy 49 9.4 43 6.1 80 80 Calm 30.14 1021 10 16 0.00 0.00
7:54 am 07:54 Mostly Cloudy 50 10 45 7.2 83 83 Calm 30.11 1020 10 16 0.00 0.00
8:54 am 08:54 Mostly Cloudy 52 11.1 46 7.8 80 80 SSW 6 9 30.08 1019 10 16 0.00 0.00
9:54 am 09:54 Cloudy with Light Rain 52 11.1 48 8.9 86 86 S 6 9 30.04 1017 3 5 0.01 0.25
10:01 am 10:01 Cloudy with Rain 52 11.1 48 8.9 86 86 SW 7 11 30.04 1017 3 4 0.01 0.25
10:54 am 10:54 Cloudy with Rain 52 11.1 49 9.4 89 89 SSW 8 13 30.00 1016 3 4 0.19 4.83
11:26 am 11:26 Cloudy with Rain 52 11.1 49 9.4 89 89 S 9 15 29.97 1015 3 4 0.12 3.05
11:54 am 11:54 Cloudy with Light Rain 52 11.1 49 9.4 89 89 S 9 15 29.92 1013 3 4 0.17 4.32
12:54 pm 12:54 Cloudy with Light Rain 54 12.2 51 10.6 90 90 VRB 6 9 29.84 1011 8 13 0.03 0.76
1:30 pm 13:30 Cloudy 54 12.2 52 11.1 93 93 VRB 6 9 29.82 1010 10 16 0.00 0.00
1:54 pm 13:54 Cloudy 55 12.8 52 11.1 90 90 SW 5 7 29.80 1009 10 16 0.00 0.00
2:54 pm 14:54 Cloudy 57 13.9 53 11.7 87 87 SSW 10 17 29.75 1008 10 16 0.00 0.00
3:54 pm 15:54 Mostly Cloudy 58 14.4 52 11.1 81 81 SW 12 19 29.75 1007 10 16 0.00 0.00
4:54 pm 16:54 Mostly Cloudy 56 13.3 52 11.1 87 87 W 9 15 29.76 1008 10 16 0.00 0.00
5:29 pm 17:29 Mostly Cloudy 53 11.7 50 10 89 89 W 8 13 29.77 1008 10 16 0.00 0.00
5:54 pm 17:54 Mostly Cloudy 55 12.8 50 10 83 83 WNW 10 17 29.80 1009 10 16 0.00 0.00
6:54 pm 18:54 Mostly Clear 54 12.2 38 3.3 55 55 WNW 13 20 29.81 1010 10 16 0.00 0.00
7:54 pm 19:54 Mostly Clear 52 11.1 30 -1.1 43 43 WNW 20 31 29.82 1010 10 16 0.00 0.00
8:54 pm 20:54 Mostly Clear 51 10.6 27 -2.8 39 39 WNW 21 33 29.87 1012 10 16 0.00 0.00
9:54 pm 21:54 Mostly Clear 47 8.3 24 -4.4 41 41 WNW 29 46 29.91 1013 10 16 0.00 0.00
10:54 pm 22:54 Mostly Clear 43 6.1 19 -7.2 38 38 WNW 22 35 29.94 1014 10 16 0.00 0.00
11:54 pm 23:54 Mostly Clear 41 5 20 -6.7 43 43 WNW 20 31 29.95 1014 10 16 0.00 0.00

Powered by AerisWeather